Wellsville, NY

8:11 AM EST on December 15, 2019 (GMT -0500)
Wellsville Municipal-Tarantine

Weather History for KELZ - August, 2019

Change the Weather History Date:

Wednesday, August 14, 2019

  Actual Average (KDSV) Record (KDSV)
Temperature  
Mean Temperature 68 °F -  
Max Temperature 77 °F 81 °F 95 °F (2002)
Min Temperature 60 °F 55 °F 42 °F (1964)
Cooling Degree Days 4    
Growing Degree Days 18 (Base 50)    
Moisture  
Dew Point 61 °F    
Average Humidity 91    
Maximum Humidity 100    
Minimum Humidity 50    
Precipitation  
Precipitation 0.00 in - - ()
Sea Level Pressure  
Sea Level Pressure 29.93 in    
Wind  
Wind Speed 3 mph ()    
Max Wind Speed 9 mph    
Max Gust Speed -    
Visibility 4.5 miles    
Events Fog    
Averages and records for this station are not official NWS values.
T = Trace of Precipitation, MM = Missing Value Source: Averaged Metar Reports

Daily Weather History Graph

Daily Weather History Graph

Search for Another Location

Airport or City:

Astronomy

Aug. 14, 2019 Rise Set
Actual Time 6:18 AM EDT 8:14 PM EDT
Civil Twilight 5:48 AM EDT 8:44 PM EDT
Nautical Twilight 5:11 AM EDT 9:21 PM EDT
Astronomical Twilight 4:30 AM EDT 10:01 PM EDT
Moon 8:08 PM EDT (8/14) 5:12 AM EDT (8/14)
Length of Visible Light 14h 56m
Length of Day
13h 55m
Waxing Gibbous, 99% of the Moon is Illuminated
Aug 14
Waxing Gibbous
Aug 15
Full
Aug 23
Last Quarter
Aug 30
New
Sep 5
First Quarter

Hourly Weather History & Observations

Time (EDT) Temp. Dew Point Humidity Pressure Visibility Wind Dir Wind Speed Gust Speed Precip Events Conditions
12:56 AM 64.0 °F 64.0 °F 100% 29.88 in 3.0 mi Calm Calm - N/A   Overcast
1:13 AM 64.9 °F 64.0 °F 97% 29.90 in 2.5 mi Calm Calm - N/A   Overcast
1:16 AM 64.0 °F 64.0 °F 100% 29.90 in 0.8 mi NNE 3.5 mph - N/A   Overcast
1:21 AM 64.9 °F 64.9 °F 100% 29.90 in 0.2 mi North 4.6 mph - N/A Fog Fog
1:56 AM 64.0 °F 64.0 °F 100% 29.87 in 0.2 mi North 4.6 mph - N/A Fog Fog
2:56 AM 64.0 °F 64.0 °F 100% 29.86 in 0.2 mi Calm Calm - N/A Fog Fog
3:56 AM 63.0 °F 63.0 °F 100% 29.86 in 0.2 mi North 5.8 mph - N/A Fog Fog
4:04 AM 62.1 °F 62.1 °F 100% 29.90 in 0.5 mi NNW 5.8 mph - N/A Fog Fog
4:10 AM 62.1 °F 62.1 °F 100% 29.90 in 2.5 mi North 5.8 mph - N/A   Overcast
4:17 AM 62.1 °F 62.1 °F 100% 29.89 in 3.0 mi North 3.5 mph - N/A   Overcast
4:29 AM 62.1 °F 62.1 °F 100% 29.89 in 2.5 mi North 3.5 mph - N/A   Mostly Cloudy
4:33 AM 62.1 °F 62.1 °F 100% 29.89 in 3.0 mi Calm Calm - N/A   Overcast
4:51 AM 60.8 °F 60.8 °F 100% 29.89 in 0.8 mi Calm Calm - N/A   Mostly Cloudy
4:56 AM 61.0 °F 61.0 °F 100% 29.86 in 0.8 mi Calm Calm - N/A   Scattered Clouds
5:01 AM 62.1 °F 61.0 °F 96% 29.90 in 2.5 mi Calm Calm - N/A   Scattered Clouds
5:08 AM 61.0 °F 61.0 °F 100% 29.90 in 4.0 mi NNE 4.6 mph - N/A   Mostly Cloudy
5:12 AM 61.0 °F 61.0 °F 100% 29.90 in 2.5 mi North 5.8 mph - N/A   Mostly Cloudy
5:14 AM 62.1 °F 62.1 °F 100% 29.90 in 0.8 mi North 4.6 mph - N/A   Mostly Cloudy
5:22 AM 62.1 °F 62.1 °F 100% 29.91 in 0.2 mi North 4.6 mph - N/A Fog Fog
5:34 AM 62.1 °F 62.1 °F 100% 29.91 in 1.0 mi North 5.8 mph - N/A   Overcast
5:39 AM 62.1 °F 62.1 °F 100% 29.91 in 3.0 mi North 4.6 mph - N/A   Overcast
5:56 AM 62.1 °F 62.1 °F 100% 29.88 in 2.5 mi North 4.6 mph - N/A   Overcast
6:05 AM 62.1 °F 62.1 °F 100% 29.92 in 0.8 mi NNW 4.6 mph - N/A   Overcast
6:15 AM 62.1 °F 62.1 °F 100% 29.92 in 0.2 mi NW 4.6 mph - N/A Fog Fog
6:29 AM 61.0 °F 61.0 °F 100% 29.93 in 1.0 mi NNW 6.9 mph - N/A   Overcast
6:34 AM 61.0 °F 61.0 °F 100% 29.93 in 3.0 mi North 5.8 mph - N/A   Overcast
6:51 AM 60.8 °F 60.8 °F 100% 29.93 in 2.5 mi Calm Calm - N/A   Overcast
6:56 AM 61.0 °F 61.0 °F 100% 29.91 in 1.8 mi Calm Calm - N/A   Overcast
7:15 AM 62.1 °F 62.1 °F 100% 29.94 in 2.5 mi NW 3.5 mph - N/A   Overcast
7:30 AM 62.1 °F 62.1 °F 100% 29.94 in 3.0 mi NW 3.5 mph - N/A   Overcast
7:56 AM 62.1 °F 62.1 °F 100% 29.93 in 4.0 mi NNW 3.5 mph - N/A   Overcast
8:17 AM 62.1 °F 62.1 °F 100% 29.96 in 4.0 mi North 4.6 mph - N/A   Overcast
8:38 AM 63.0 °F 63.0 °F 100% 29.96 in 2.5 mi North 3.5 mph - N/A   Overcast
8:56 AM 64.0 °F 62.1 °F 93% 29.94 in 4.0 mi Calm Calm - N/A   Overcast
9:04 AM 64.0 °F 62.1 °F 93% 29.97 in 9.0 mi Calm Calm - N/A   Overcast
9:56 AM 66.0 °F 62.1 °F 87% 29.95 in 10.0 mi North 4.6 mph - N/A   Mostly Cloudy
10:56 AM 70.0 °F 62.1 °F 76% 29.95 in 10.0 mi North 4.6 mph - N/A   Scattered Clouds
11:56 AM 71.1 °F 60.1 °F 68% 29.95 in 10.0 mi East 5.8 mph - N/A   Scattered Clouds
12:56 PM 73.0 °F 57.0 °F 57% 29.94 in 10.0 mi East 6.9 mph - N/A   Partly Cloudy
1:56 PM 75.9 °F 57.9 °F 54% 29.94 in 10.0 mi Variable 3.5 mph - N/A   Mostly Cloudy
2:56 PM 73.9 °F 57.0 °F 55% 29.95 in 10.0 mi North 3.5 mph - N/A   Overcast
3:56 PM 77.0 °F 57.0 °F 50% 29.94 in 10.0 mi North 5.8 mph - N/A   Partly Cloudy
4:56 PM 75.9 °F 59.0 °F 56% 29.94 in 10.0 mi Variable 3.5 mph - N/A   Partly Cloudy
5:56 PM 73.0 °F 61.0 °F 66% 29.96 in 10.0 mi ENE 5.8 mph - N/A   Mostly Cloudy
6:56 PM 73.0 °F 61.0 °F 66% 29.97 in 10.0 mi NNE 4.6 mph - N/A   Mostly Cloudy
7:56 PM 69.1 °F 61.0 °F 75% 29.97 in 10.0 mi NNE 9.2 mph - N/A   Scattered Clouds
8:56 PM 64.9 °F 60.1 °F 84% 30.00 in 10.0 mi NE 9.2 mph - N/A   Scattered Clouds
9:56 PM 63.0 °F 57.9 °F 84% 30.02 in 10.0 mi NNE 8.1 mph - N/A   Partly Cloudy
10:56 PM 63.0 °F 57.9 °F 84% 30.03 in 10.0 mi NE 3.5 mph - N/A   Scattered Clouds
11:56 PM 61.0 °F 57.9 °F 90% 30.03 in 10.0 mi NNE 3.5 mph - N/A   Clear